| time (UTC) | temp F | wind direction | speed knots | gust knots | rain 1hr in | rain 24hr in | rain mn in | humidity % | barometer mb |
| 20260507014412 | 63 | 38 | 0.0 | 0.9 | 0.00 | 1.08 | 0.49 | 95 | 1010.5 |
| 20260507013840 | 63 | 38 | 0.0 | 1.7 | 0.00 | 1.08 | 0.49 | 95 | 1010.8 |
| 20260507013339 | 63 | 39 | 0.0 | 1.7 | 0.00 | 1.08 | 0.49 | 95 | 1010.5 |
| 20260507012838 | 63 | 39 | 0.0 | 1.7 | 0.00 | 1.08 | 0.49 | 95 | 1010.5 |
| 20260507012337 | 64 | 63 | 0.9 | 1.7 | 0.01 | 1.08 | 0.49 | 95 | 1010.5 |
| 20260507011836 | 64 | 102 | 0.9 | 0.9 | 0.01 | 1.08 | 0.49 | 95 | 1010.5 |
| 20260507011334 | 64 | 101 | 0.9 | 0.9 | 0.02 | 1.08 | 0.49 | 95 | 1010.8 |
| 20260507010833 | 64 | 101 | 0.0 | 0.0 | 0.03 | 1.08 | 0.49 | 95 | 1010.8 |
| 20260507010331 | 64 | 101 | 0.0 | 0.0 | 0.04 | 1.08 | 0.49 | 95 | 1010.5 |
| 20260507005830 | 64 | 101 | 0.0 | 0.9 | 0.05 | 1.08 | 0.49 | 95 | 1010.8 |
| 20260507005329 | 64 | 101 | 0.0 | 0.9 | 0.05 | 1.08 | 0.49 | 95 | 1011.2 |
| 20260507004827 | 64 | 102 | 0.0 | 0.9 | 0.08 | 1.08 | 0.49 | 95 | 1010.5 |
| 20260507004325 | 64 | 102 | 0.9 | 3.5 | 0.10 | 1.08 | 0.49 | 95 | 1009.8 |
| 20260507003823 | 64 | 101 | 0.9 | 7.0 | 0.11 | 1.08 | 0.49 | 95 | 1009.8 |
| 20260507003322 | 64 | 125 | 0.0 | 7.0 | 0.12 | 1.08 | 0.49 | 95 | 1009.8 |
| 20260507002821 | 64 | 125 | 0.9 | 7.0 | 0.13 | 1.08 | 0.49 | 95 | 1009.5 |
| 20260507002319 | 64 | 82 | 2.6 | 7.0 | 0.12 | 1.07 | 0.48 | 95 | 1010.8 |
| 20260507001818 | 64 | 221 | 0.9 | 3.5 | 0.13 | 1.07 | 0.48 | 95 | 1011.9 |
| 20260507001317 | 64 | 208 | 0.9 | 3.5 | 0.13 | 1.06 | 0.47 | 95 | 1011.2 |
| 20260507000815 | 64 | 184 | 1.7 | 4.3 | 0.12 | 1.05 | 0.46 | 95 | 1011.2 |
| 20260507000242 | 64 | 248 | 0.9 | 5.2 | 0.10 | 1.03 | 0.44 | 95 | 1010.5 |
| 20260506235739 | 64 | 232 | 1.7 | 5.2 | 0.10 | 1.03 | 0.44 | 95 | 1010.2 |
| 20260506235237 | 64 | 226 | 1.7 | 4.3 | 0.09 | 1.02 | 0.43 | 95 | 1010.2 |
| 20260506234735 | 65 | 223 | 1.7 | 4.3 | 0.07 | 1.00 | 0.41 | 95 | 1010.5 |
| 20260506234234 | 65 | 356 | 0.0 | 0.9 | 0.05 | 0.98 | 0.39 | 95 | 1010.2 |
| 20260506233733 | 65 | 355 | 0.0 | 0.9 | 0.04 | 0.97 | 0.38 | 95 | 1009.5 |
| 20260506233232 | 65 | 352 | 0.9 | 1.7 | 0.03 | 0.96 | 0.37 | 95 | 1009.5 |
| 20260506232731 | 65 | 242 | 0.0 | 2.6 | 0.02 | 0.95 | 0.36 | 95 | 1009.8 |
| 20260506232230 | 65 | 248 | 0.0 | 6.1 | 0.02 | 0.95 | 0.36 | 95 | 1009.8 |
| 20260506231728 | 65 | 31 | 0.9 | 6.1 | 0.00 | 0.93 | 0.34 | 95 | 1009.8 |
| 20260506231155 | 65 | 240 | 0.9 | 7.0 | 0.00 | 0.93 | 0.34 | 95 | 1010.2 |
| 20260506230654 | 65 | 231 | 2.6 | 7.0 | 0.01 | 0.93 | 0.34 | 95 | 1010.2 |
| 20260506230153 | 65 | 211 | 1.7 | 4.3 | 0.02 | 0.93 | 0.34 | 95 | 1009.8 |
| 20260506225619 | 65 | 193 | 1.7 | 4.3 | 0.03 | 0.93 | 0.34 | 95 | 1009.8 |
| 20260506225118 | 66 | 242 | 1.7 | 4.3 | 0.04 | 0.93 | 0.34 | 95 | 1010.2 |
| 20260506224616 | 66 | 176 | 0.9 | 2.6 | 0.04 | 0.93 | 0.34 | 95 | 1009.8 |
| 20260506224115 | 66 | 222 | 0.9 | 1.7 | 0.05 | 0.93 | 0.34 | 95 | 1009.5 |
| 20260506223613 | 66 | 83 | 0.0 | 3.5 | 0.06 | 0.93 | 0.34 | 95 | 1009.1 |
| 20260506223112 | 66 | 80 | 0.9 | 3.5 | 0.08 | 0.93 | 0.34 | 95 | 1009.1 |
| 20260506222610 | 66 | 204 | 0.9 | 7.0 | 0.09 | 0.93 | 0.34 | 95 | 1009.1 |
| 20260506221901 | 66 | 149 | 0.9 | 7.0 | 0.10 | 0.93 | 0.34 | 95 | 1008.8 |
| 20260506221359 | 66 | 99 | 1.7 | 7.0 | 0.11 | 0.93 | 0.34 | 95 | 1009.1 |
| 20260506220858 | 66 | 204 | 1.7 | 7.0 | 0.11 | 0.93 | 0.34 | 95 | 1009.8 |
| 20260506220357 | 66 | 231 | 3.5 | 6.1 | 0.11 | 0.92 | 0.33 | 95 | 1009.1 |
| 20260506215855 | 67 | 215 | 1.7 | 3.5 | 0.11 | 0.90 | 0.32 | 95 | 1008.8 |
| 20260506215353 | 67 | 231 | 1.7 | 3.5 | 0.11 | 0.89 | 0.30 | 95 | 1009.1 |
| 20260506214852 | 67 | 211 | 1.7 | 2.6 | 0.11 | 0.89 | 0.30 | 95 | 1009.1 |
| 20260506214351 | 67 | 122 | 0.9 | 5.2 | 0.11 | 0.89 | 0.30 | 95 | 1009.1 |
| 20260506213850 | 67 | 203 | 0.9 | 5.2 | 0.10 | 0.87 | 0.28 | 95 | 1009.1 |
| 20260506213348 | 67 | 284 | 0.9 | 6.1 | 0.10 | 0.86 | 0.27 | 95 | 1009.1 |
| 20260506212847 | 67 | 229 | 2.6 | 6.1 | 0.09 | 0.85 | 0.26 | 95 | 1009.5 |
| 20260506212346 | 67 | 193 | 1.7 | 4.3 | 0.09 | 0.84 | 0.25 | 95 | 1009.1 |
| 20260506211845 | 67 | 238 | 1.7 | 4.3 | 0.08 | 0.83 | 0.24 | 95 | 1008.5 |
| 20260506211343 | 67 | 95 | 0.9 | 4.3 | 0.08 | 0.82 | 0.23 | 94 | 1008.8 |
| 20260506210841 | 67 | 230 | 0.9 | 4.3 | 0.09 | 0.82 | 0.23 | 95 | 1009.5 |
| 20260506210340 | 67 | 143 | 0.9 | 7.0 | 0.08 | 0.81 | 0.22 | 94 | 1009.5 |
| 20260506205839 | 67 | 222 | 0.9 | 7.0 | 0.07 | 0.79 | 0.20 | 95 | 1009.1 |
| 20260506205338 | 67 | 238 | 1.7 | 7.8 | 0.06 | 0.78 | 0.19 | 95 | 1009.8 |
| 20260506204835 | 67 | 218 | 1.7 | 7.8 | 0.07 | 0.78 | 0.19 | 95 | 1008.8 |
| 20260506204334 | 67 | 220 | 1.7 | 6.1 | 0.09 | 0.78 | 0.19 | 95 | 1008.5 |
| 20260506203833 | 67 | 203 | 1.7 | 4.3 | 0.08 | 0.77 | 0.18 | 95 | 1008.5 |
| 20260506203332 | 67 | 228 | 0.9 | 4.3 | 0.08 | 0.76 | 0.17 | 95 | 1008.5 |
| 20260506202830 | 67 | 220 | 1.7 | 4.3 | 0.10 | 0.76 | 0.17 | 95 | 1008.5 |
| 20260506202329 | 67 | 237 | 0.9 | 4.3 | 0.09 | 0.75 | 0.16 | 95 | 1008.5 |
| 20260506201755 | 67 | 202 | 0.9 | 4.3 | 0.09 | 0.75 | 0.16 | 95 | 1009.1 |
| 20260506201254 | 67 | 224 | 1.7 | 4.3 | 0.08 | 0.74 | 0.15 | 95 | 1009.5 |
| 20260506200753 | 67 | 205 | 1.7 | 5.2 | 0.08 | 0.73 | 0.14 | 94 | 1009.5 |
| 20260506200252 | 67 | 238 | 1.7 | 5.2 | 0.09 | 0.73 | 0.14 | 95 | 1009.5 |
| 20260506195751 | 67 | 188 | 0.9 | 3.5 | 0.08 | 0.72 | 0.13 | 94 | 1009.5 |
| 20260506195250 | 67 | 200 | 0.0 | 4.3 | 0.07 | 0.71 | 0.12 | 94 | 1009.8 |
| 20260506194748 | 67 | 230 | 0.9 | 4.3 | 0.08 | 0.71 | 0.12 | 94 | 1010.2 |
| 20260506194247 | 67 | 240 | 1.7 | 5.2 | 0.06 | 0.69 | 0.10 | 94 | 1010.2 |
| 20260506193746 | 67 | 223 | 2.6 | 5.2 | 0.07 | 0.69 | 0.10 | 94 | 1010.2 |
| 20260506193245 | 67 | 238 | 2.6 | 4.3 | 0.05 | 0.67 | 0.08 | 94 | 1009.8 |
| 20260506192713 | 67 | 123 | 0.9 | 2.6 | 0.04 | 0.66 | 0.07 | 94 | 1009.5 |
| 20260506192212 | 67 | 265 | 1.7 | 2.6 | 0.05 | 0.66 | 0.07 | 94 | 1009.5 |
| 20260506191710 | 67 | 273 | 0.9 | 3.5 | 0.06 | 0.66 | 0.07 | 94 | 1009.8 |
| 20260506191209 | 67 | 209 | 0.9 | 4.3 | 0.06 | 0.65 | 0.07 | 94 | 1009.8 |
| 20260506190706 | 67 | 175 | 0.9 | 4.3 | 0.06 | 0.65 | 0.06 | 94 | 1010.2 |
| 20260506190206 | 67 | 235 | 1.7 | 4.3 | 0.05 | 0.64 | 0.05 | 94 | 1010.2 |
| 20260506185705 | 67 | 230 | 1.7 | 3.5 | 0.05 | 0.64 | 0.05 | 94 | 1009.8 |
| 20260506185204 | 67 | 226 | 0.9 | 3.5 | 0.05 | 0.64 | 0.05 | 94 | 1009.8 |
| 20260506184702 | 67 | 248 | 1.7 | 4.3 | 0.04 | 0.63 | 0.04 | 94 | 1010.2 |
| 20260506184200 | 67 | 193 | 1.7 | 5.2 | 0.04 | 0.63 | 0.04 | 94 | 1010.5 |
| 20260506183659 | 67 | 231 | 1.7 | 5.2 | 0.03 | 0.62 | 0.03 | 93 | 1010.5 |
| 20260506183158 | 67 | 143 | 0.9 | 5.2 | 0.03 | 0.62 | 0.03 | 93 | 1010.5 |
| 20260506182555 | 68 | 280 | 1.7 | 5.2 | 0.02 | 0.61 | 0.02 | 92 | 1010.2 |
| 20260506182053 | 68 | 195 | 0.9 | 4.3 | 0.01 | 0.60 | 0.01 | 91 | 1010.2 |
| 20260506181520 | 69 | 215 | 1.7 | 5.2 | 0.00 | 0.59 | 0.00 | 90 | 1010.8 |
| 20260506180917 | 69 | 220 | 1.7 | 5.2 | 0.00 | 0.59 | 0.00 | 89 | 1010.5 |
| 20260506180416 | 69 | 199 | 0.9 | 6.1 | 0.00 | 0.59 | 0.00 | 89 | 1010.8 |
| 20260506175915 | 69 | 238 | 1.7 | 6.1 | 0.00 | 0.59 | 0.00 | 87 | 1010.8 |
| 20260506175414 | 69 | 204 | 1.7 | 6.1 | 0.00 | 0.59 | 0.00 | 87 | 1010.8 |
| 20260506174913 | 69 | 221 | 1.7 | 6.1 | 0.00 | 0.59 | 0.00 | 87 | 1010.8 |
| 20260506174412 | 70 | 233 | 1.7 | 4.3 | 0.00 | 0.59 | 0.00 | 87 | 1010.8 |
| 20260506173839 | 70 | 235 | 1.7 | 7.0 | 0.00 | 0.59 | 0.00 | 86 | 1010.8 |
| 20260506173338 | 70 | 240 | 1.7 | 7.0 | 0.00 | 0.59 | 0.00 | 86 | 1010.8 |
| 20260506172837 | 70 | 213 | 1.7 | 7.8 | 0.00 | 0.59 | 0.00 | 86 | 1010.5 |
| 20260506172202 | 70 | 237 | 3.5 | 7.8 | 0.00 | 0.59 | 0.00 | 85 | 1010.5 |
| 20260506171630 | 70 | 199 | 2.6 | 6.1 | 0.00 | 0.59 | 0.00 | 88 | 1010.5 |
| 20260506171129 | 70 | 188 | 1.7 | 6.1 | 0.00 | 0.59 | 0.00 | 88 | 1010.5 |
| 20260506170628 | 70 | 221 | 3.5 | 6.1 | 0.00 | 0.59 | 0.00 | 87 | 1010.5 |
| 20260506170056 | 70 | 255 | 1.7 | 6.1 | 0.00 | 0.59 | 0.00 | 87 | 1010.5 |
| 20260506165554 | 70 | 238 | 0.9 | 6.1 | 0.00 | 0.59 | 0.00 | 89 | 1010.5 |
| 20260506165053 | 70 | 221 | 2.6 | 6.1 | 0.00 | 0.59 | 0.00 | 87 | 1010.2 |
| 20260506164551 | 69 | 245 | 2.6 | 8.7 | 0.00 | 0.59 | 0.00 | 88 | 1010.2 |
| 20260506164050 | 69 | 234 | 3.5 | 8.7 | 0.00 | 0.59 | 0.00 | 87 | 1010.2 |
| 20260506163549 | 69 | 216 | 2.6 | 9.6 | 0.00 | 0.59 | 0.00 | 86 | 1010.2 |
| 20260506163048 | 70 | 230 | 3.5 | 9.6 | 0.00 | 0.59 | 0.00 | 87 | 1010.2 |
| 20260506162547 | 70 | 227 | 2.6 | 9.6 | 0.00 | 0.59 | 0.00 | 86 | 1010.2 |
| 20260506162046 | 70 | 222 | 2.6 | 9.6 | 0.00 | 0.59 | 0.00 | 87 | 1009.8 |
| 20260506161512 | 69 | 211 | 2.6 | 9.6 | 0.00 | 0.59 | 0.00 | 89 | 1010.2 |
| 20260506161011 | 69 | 193 | 2.6 | 9.6 | 0.00 | 0.59 | 0.00 | 91 | 1010.2 |
| 20260506160439 | 68 | 252 | 3.5 | 9.6 | 0.00 | 0.59 | 0.00 | 90 | 1009.8 |
| 20260506155938 | 68 | 235 | 2.6 | 7.0 | 0.00 | 0.59 | 0.59 | 91 | 1010.2 |
| 20260506155436 | 68 | 240 | 3.5 | 7.8 | 0.01 | 0.59 | 0.59 | 92 | 1010.2 |
| 20260506154935 | 67 | 246 | 1.7 | 7.8 | 0.01 | 0.59 | 0.59 | 92 | 1010.2 |
| 20260506154434 | 67 | 30 | 1.7 | 8.7 | 0.02 | 0.59 | 0.59 | 94 | 1009.8 |
| 20260506153932 | 66 | 214 | 3.5 | 8.7 | 0.02 | 0.59 | 0.59 | 94 | 1009.8 |
| 20260506153431 | 66 | 206 | 1.7 | 5.2 | 0.04 | 0.59 | 0.59 | 94 | 1010.2 |
| 20260506152859 | 65 | 217 | 1.7 | 7.0 | 0.05 | 0.59 | 0.59 | 94 | 1010.2 |
| 20260506152357 | 65 | 110 | 1.7 | 7.0 | 0.06 | 0.59 | 0.59 | 95 | 1010.2 |
| 20260506151855 | 64 | 237 | 2.6 | 7.8 | 0.06 | 0.59 | 0.59 | 95 | 1010.2 |
| 20260506151354 | 64 | 236 | 2.6 | 7.8 | 0.07 | 0.59 | 0.59 | 95 | 1010.2 |
| 20260506150853 | 64 | 134 | 1.7 | 7.8 | 0.07 | 0.59 | 0.59 | 95 | 1009.8 |
| 20260506150352 | 63 | 184 | 1.7 | 7.8 | 0.08 | 0.59 | 0.59 | 95 | 1010.2 |
| 20260506145850 | 63 | 243 | 1.7 | 8.7 | 0.09 | 0.59 | 0.59 | 95 | 1010.5 |
| 20260506145318 | 63 | 199 | 2.6 | 8.7 | 0.09 | 0.58 | 0.58 | 95 | 1010.8 |
| 20260506144817 | 63 | 185 | 0.9 | 5.2 | 0.10 | 0.58 | 0.58 | 95 | 1010.5 |
| 20260506144314 | 63 | 240 | 1.7 | 5.2 | 0.11 | 0.57 | 0.57 | 95 | 1010.8 |
| 20260506143813 | 63 | 184 | 1.7 | 5.2 | 0.12 | 0.57 | 0.57 | 95 | 1010.8 |
| 20260506143312 | 63 | 239 | 1.7 | 3.5 | 0.12 | 0.55 | 0.55 | 95 | 1010.8 |
| 20260506142811 | 63 | 234 | 0.9 | 3.5 | 0.14 | 0.54 | 0.54 | 95 | 1011.2 |
| 20260506142310 | 63 | 232 | 0.9 | 5.2 | 0.14 | 0.53 | 0.53 | 95 | 1011.5 |
| 20260506141809 | 63 | 156 | 0.9 | 7.0 | 0.15 | 0.53 | 0.53 | 95 | 1011.2 |
| 20260506141307 | 63 | 122 | 0.9 | 7.8 | 0.14 | 0.52 | 0.52 | 95 | 1011.2 |
| 20260506140805 | 63 | 239 | 1.7 | 7.8 | 0.16 | 0.51 | 0.51 | 95 | 1011.2 |
| 20260506140304 | 63 | 186 | 1.7 | 6.1 | 0.17 | 0.51 | 0.51 | 95 | 1011.5 |
| 20260506135803 | 62 | 183 | 0.9 | 6.1 | 0.19 | 0.50 | 0.50 | 95 | 1010.5 |
| 20260506135305 | 62 | 159 | 1.7 | 3.5 | 0.20 | 0.49 | 0.49 | 94 | 1010.5 |
| 20260506134728 | 62 | 158 | 1.7 | 3.5 | 0.20 | 0.48 | 0.48 | 94 | 1010.5 |
| 20260506134228 | 62 | 113 | 0.9 | 3.5 | 0.20 | 0.46 | 0.46 | 94 | 1010.5 |
| 20260506133725 | 62 | 123 | 0.9 | 3.5 | 0.23 | 0.45 | 0.45 | 94 | 1010.8 |
| 20260506133224 | 62 | 123 | 0.9 | 3.5 | 0.23 | 0.42 | 0.42 | 94 | 1011.2 |
| 20260506132723 | 62 | 202 | 1.7 | 3.5 | 0.25 | 0.40 | 0.40 | 94 | 1011.2 |
| 20260506132222 | 62 | 103 | 0.9 | 3.5 | 0.26 | 0.39 | 0.39 | 94 | 1010.8 |
| 20260506131721 | 62 | 103 | 1.7 | 3.5 | 0.28 | 0.38 | 0.38 | 94 | 1011.2 |
| 20260506131220 | 62 | 190 | 0.9 | 3.5 | 0.29 | 0.37 | 0.37 | 94 | 1011.5 |
| 20260506130647 | 62 | 201 | 1.7 | 3.5 | 0.28 | 0.35 | 0.35 | 94 | 1010.8 |
| 20260506130146 | 62 | 211 | 0.9 | 2.6 | 0.27 | 0.33 | 0.33 | 94 | 1010.8 |
| 20260506125645 | 62 | 224 | 0.9 | 2.6 | 0.26 | 0.30 | 0.30 | 94 | 1010.5 |
| 20260506125143 | 62 | 217 | 0.9 | 2.6 | 0.25 | 0.29 | 0.29 | 94 | 1010.8 |
| 20260506124642 | 62 | 231 | 0.9 | 2.6 | 0.25 | 0.28 | 0.28 | 94 | 1010.8 |
| 20260506124141 | 62 | 148 | 0.9 | 2.6 | 0.24 | 0.26 | 0.26 | 94 | 1010.2 |
| 20260506123607 | 62 | 161 | 0.0 | 1.7 | 0.19 | 0.21 | 0.21 | 94 | 1011.2 |
| 20260506123035 | 63 | 125 | 0.9 | 1.7 | 0.16 | 0.18 | 0.18 | 93 | 1011.2 |
| 20260506122533 | 63 | 73 | 0.9 | 2.6 | 0.13 | 0.14 | 0.14 | 93 | 1010.8 |
| 20260506122031 | 63 | 217 | 0.0 | 4.3 | 0.11 | 0.12 | 0.12 | 93 | 1010.8 |
| 20260506121530 | 63 | 217 | 0.0 | 4.3 | 0.08 | 0.09 | 0.09 | 92 | 1010.5 |
| 20260506121029 | 63 | 241 | 1.7 | 4.3 | 0.06 | 0.07 | 0.07 | 92 | 1010.2 |
| 20260506120528 | 63 | 215 | 0.9 | 4.3 | 0.05 | 0.06 | 0.06 | 91 | 1010.2 |
| 20260506120026 | 63 | 197 | 0.9 | 2.6 | 0.04 | 0.05 | 0.05 | 91 | 1010.2 |
| 20260506115454 | 63 | 153 | 0.9 | 3.5 | 0.04 | 0.04 | 0.04 | 91 | 1009.8 |
| 20260506114953 | 63 | 236 | 1.7 | 3.5 | 0.03 | 0.03 | 0.03 | 90 | 1009.8 |
| 20260506114451 | 63 | 187 | 0.9 | 4.3 | 0.02 | 0.02 | 0.02 | 90 | 1009.8 |
| 20260506113848 | 63 | 208 | 1.7 | 4.3 | 0.02 | 0.02 | 0.02 | 90 | 1009.5 |
| 20260506113347 | 63 | 226 | 1.7 | 4.3 | 0.02 | 0.02 | 0.02 | 89 | 1009.5 |
| 20260506112846 | 63 | 231 | 0.9 | 3.5 | 0.01 | 0.01 | 0.01 | 89 | 1009.5 |
| 20260506112344 | 63 | 212 | 1.7 | 3.5 | 0.01 | 0.01 | 0.01 | 89 | 1009.1 |
| 20260506111843 | 63 | 192 | 0.9 | 2.6 | 0.01 | 0.01 | 0.01 | 88 | 1009.1 |
| 20260506111342 | 64 | 212 | 1.7 | 3.5 | 0.01 | 0.01 | 0.01 | 87 | 1009.5 |
| 20260506110841 | 64 | 203 | 0.9 | 3.5 | 0.01 | 0.01 | 0.01 | 86 | 1009.1 |
| 20260506110339 | 64 | 215 | 0.9 | 3.5 | 0.01 | 0.01 | 0.01 | 85 | 1008.8 |
| 20260506105838 | 65 | 225 | 1.7 | 4.3 | 0.01 | 0.01 | 0.01 | 84 | 1008.8 |
| 20260506105338 | 66 | 214 | 1.7 | 6.1 | 0.00 | 0.00 | 0.00 | 82 | 1008.8 |
| 20260506104836 | 66 | 228 | 1.7 | 6.1 | 0.00 | 0.00 | 0.00 | 80 | 1008.5 |
| 20260506104334 | 66 | 220 | 1.7 | 7.0 | 0.00 | 0.00 | 0.00 | 78 | 1008.5 |
| 20260506103833 | 67 | 225 | 0.9 | 7.0 | 0.00 | 0.00 | 0.00 | 77 | 1008.5 |
| 20260506103330 | 67 | 225 | 1.7 | 6.1 | 0.00 | 0.00 | 0.00 | 76 | 1008.8 |
| 20260506102758 | 67 | 220 | 2.6 | 6.1 | 0.00 | 0.00 | 0.00 | 76 | 1008.8 |
| 20260506102257 | 67 | 229 | 2.6 | 11.3 | 0.00 | 0.00 | 0.00 | 76 | 1008.8 |
| 20260506101756 | 67 | 233 | 2.6 | 11.3 | 0.00 | 0.00 | 0.00 | 75 | 1008.5 |
| 20260506101255 | 67 | 221 | 1.7 | 12.2 | 0.00 | 0.00 | 0.00 | 74 | 1008.5 |
| 20260506100754 | 68 | 219 | 3.5 | 12.2 | 0.00 | 0.00 | 0.00 | 73 | 1008.5 |
| 20260506100251 | 68 | 230 | 3.5 | 7.8 | 0.00 | 0.00 | 0.00 | 73 | 1008.5 |
| 20260506095750 | 68 | 236 | 1.7 | 7.8 | 0.00 | 0.00 | 0.00 | 71 | 1008.1 |
| 20260506095249 | 68 | 227 | 1.7 | 8.7 | 0.00 | 0.00 | 0.00 | 71 | 1008.5 |
| 20260506094747 | 68 | 224 | 2.6 | 8.7 | 0.00 | 0.00 | 0.00 | 71 | 1008.5 |
| 20260506094215 | 68 | 219 | 1.7 | 7.0 | 0.00 | 0.00 | 0.00 | 71 | 1008.1 |
| 20260506093713 | 68 | 215 | 2.6 | 7.0 | 0.00 | 0.00 | 0.00 | 70 | 1008.1 |
| 20260506093212 | 69 | 227 | 1.7 | 6.1 | 0.00 | 0.00 | 0.00 | 70 | 1008.1 |
| 20260506092704 | 69 | 220 | 1.7 | 7.8 | 0.00 | 0.00 | 0.00 | 70 | 1008.1 |
| 20260506092203 | 69 | 239 | 1.7 | 7.8 | 0.00 | 0.00 | 0.00 | 69 | 1008.1 |
| 20260506091631 | 69 | 220 | 4.3 | 7.8 | 0.00 | 0.00 | 0.00 | 69 | 1008.1 |
| 20260506091130 | 69 | 238 | 5.2 | 8.7 | 0.00 | 0.00 | 0.00 | 69 | 1008.1 |
| 20260506090628 | 69 | 236 | 4.3 | 8.7 | 0.00 | 0.00 | 0.00 | 69 | 1008.1 |
| 20260506090126 | 69 | 207 | 1.7 | 9.6 | 0.00 | 0.00 | 0.00 | 68 | 1008.1 |
| 20260506085625 | 69 | 195 | 2.6 | 9.6 | 0.00 | 0.00 | 0.00 | 68 | 1008.1 |
| 20260506085124 | 69 | 222 | 2.6 | 9.6 | 0.00 | 0.00 | 0.00 | 67 | 1008.1 |
| 20260506084623 | 69 | 221 | 2.6 | 10.4 | 0.00 | 0.00 | 0.00 | 67 | 1008.1 |
| 20260506084122 | 69 | 237 | 5.2 | 10.4 | 0.00 | 0.00 | 0.00 | 67 | 1007.8 |
| 20260506083621 | 69 | 225 | 3.5 | 9.6 | 0.00 | 0.00 | 0.00 | 67 | 1007.8 |
| 20260506083120 | 69 | 198 | 4.3 | 10.4 | 0.00 | 0.00 | 0.00 | 66 | 1007.5 |
| 20260506082619 | 69 | 243 | 2.6 | 10.4 | 0.00 | 0.00 | 0.00 | 66 | 1007.5 |
| 20260506082116 | 69 | 243 | 4.3 | 10.4 | 0.00 | 0.00 | 0.00 | 65 | 1007.8 |
| 20260506081615 | 69 | 223 | 1.7 | 10.4 | 0.00 | 0.00 | 0.00 | 65 | 1007.8 |
| 20260506081114 | 69 | 220 | 3.5 | 10.4 | 0.00 | 0.00 | 0.00 | 64 | 1007.8 |
| 20260506080613 | 69 | 193 | 1.7 | 8.7 | 0.00 | 0.00 | 0.00 | 64 | 1007.5 |
| 20260506080112 | 69 | 239 | 4.3 | 8.7 | 0.00 | 0.00 | 0.00 | 63 | 1007.5 |
| 20260506072926 | 70 | 224 | 1.7 | 8.7 | 0.00 | 0.00 | 0.00 | 61 | 1007.5 |
| 20260506072425 | 70 | 239 | 2.6 | 7.8 | 0.00 | 0.00 | 0.00 | 61 | 1007.5 |
| 20260506071853 | 70 | 226 | 2.6 | 8.7 | 0.00 | 0.00 | 0.00 | 61 | 1007.5 |
| 20260506071352 | 69 | 220 | 2.6 | 8.7 | 0.00 | 0.00 | 0.00 | 61 | 1007.8 |
| 20260506070850 | 69 | 222 | 2.6 | 9.6 | 0.00 | 0.00 | 0.00 | 61 | 1007.8 |
| 20260506070349 | 69 | 216 | 2.6 | 10.4 | 0.00 | 0.00 | 0.00 | 61 | 1007.8 |
| 20260506062238 | 70 | 223 | 2.6 | 7.8 | 0.00 | 0.00 | 0.00 | 56 | 1008.5 |
| 20260506061737 | 70 | 219 | 2.6 | 7.8 | 0.00 | 0.00 | 0.00 | 56 | 1008.5 |
| 20260506061234 | 70 | 251 | 3.5 | 7.8 | 0.00 | 0.00 | 0.00 | 56 | 1008.5 |
| 20260506060734 | 70 | 195 | 3.5 | 7.8 | 0.00 | 0.00 | 0.00 | 56 | 1008.5 |
| 20260506060233 | 70 | 232 | 1.7 | 6.1 | 0.00 | 0.00 | 0.00 | 56 | 1008.5 |
| 20260506051116 | 70 | 235 | 2.6 | 5.2 | 0.00 | 0.00 | 0.00 | 56 | 1009.1 |
| 20260506050615 | 70 | 186 | 0.9 | 5.2 | 0.00 | 0.00 | 0.00 | 56 | 1009.1 |
| 20260506050114 | 70 | 229 | 2.6 | 5.2 | 0.00 | 0.00 | 0.00 | 56 | 1009.5 |
| 20260506045111 | 70 | 224 | 2.6 | 6.1 | 0.00 | 0.00 | 0.00 | 55 | 1009.1 |
| 20260506044610 | 70 | 217 | 1.7 | 6.1 | 0.00 | 0.00 | 0.00 | 56 | 1009.1 |
| 20260506044108 | 70 | 235 | 2.6 | 6.1 | 0.00 | 0.00 | 0.00 | 56 | 1009.1 |
| 20260506043535 | 70 | 219 | 0.9 | 6.1 | 0.00 | 0.00 | 0.00 | 56 | 1009.1 |
| 20260506043033 | 70 | 217 | 1.7 | 7.0 | 0.00 | 0.00 | 0.00 | 55 | 1009.1 |
| 20260506042532 | 70 | 235 | 2.6 | 7.0 | 0.00 | 0.00 | 0.00 | 55 | 1009.1 |
| 20260506042031 | 70 | 231 | 2.6 | 5.2 | 0.00 | 0.00 | 0.00 | 55 | 1009.1 |
| 20260506041529 | 70 | 234 | 1.7 | 6.1 | 0.00 | 0.00 | 0.00 | 55 | 1009.1 |
| 20260506041028 | 70 | 239 | 1.7 | 6.1 | 0.00 | 0.00 | 0.00 | 55 | 1009.1 |
| 20260506040527 | 70 | 221 | 1.7 | 6.1 | 0.00 | 0.00 | 0.00 | 55 | 1008.8 |
| 20260506040026 | 70 | 232 | 2.6 | 6.1 | 0.00 | 0.00 | 0.00 | 54 | 1008.8 |
| 20260506035525 | 70 | 225 | 2.6 | 7.0 | 0.00 | 0.00 | 0.00 | 54 | 1008.8 |
| 20260506034921 | 70 | 208 | 2.6 | 7.8 | 0.00 | 0.00 | 0.00 | 54 | 1009.1 |
| 20260506034420 | 70 | 231 | 2.6 | 7.8 | 0.00 | 0.00 | 0.00 | 54 | 1009.5 |
| 20260506033918 | 70 | 217 | 2.6 | 7.0 | 0.00 | 0.00 | 0.00 | 53 | 1009.5 |
| 20260506033344 | 70 | 208 | 2.6 | 7.8 | 0.00 | 0.00 | 0.00 | 53 | 1009.1 |
| 20260506032740 | 70 | 240 | 2.6 | 7.8 | 0.00 | 0.00 | 0.00 | 52 | 1009.1 |
| 20260506032237 | 70 | 239 | 1.7 | 7.8 | 0.00 | 0.00 | 0.00 | 52 | 1009.1 |
| 20260506031736 | 70 | 219 | 2.6 | 8.7 | 0.00 | 0.00 | 0.00 | 52 | 1009.1 |
| 20260506031235 | 70 | 220 | 2.6 | 8.7 | 0.00 | 0.00 | 0.00 | 52 | 1009.5 |
| 20260506030734 | 69 | 217 | 1.7 | 4.3 | 0.00 | 0.00 | 0.00 | 53 | 1009.5 |
| 20260506030232 | 69 | 211 | 1.7 | 3.5 | 0.00 | 0.00 | 0.00 | 52 | 1009.8 |
| 20260506025731 | 70 | 199 | 0.9 | 3.5 | 0.00 | 0.00 | 0.00 | 54 | 1009.8 |
| 20260506025158 | 70 | 225 | 1.7 | 3.5 | 0.00 | 0.00 | 0.00 | 51 | 1009.8 |
| 20260506024555 | 70 | 231 | 1.7 | 2.6 | 0.00 | 0.00 | 0.00 | 51 | 1009.8 |
| 20260506024054 | 70 | 119 | 0.9 | 2.6 | 0.00 | 0.00 | 0.00 | 51 | 1009.5 |
| 20260506023552 | 70 | 190 | 0.9 | 3.5 | 0.00 | 0.00 | 0.00 | 51 | 1009.5 |
| 20260506023019 | 70 | 168 | 0.0 | 4.3 | 0.00 | 0.00 | 0.00 | 51 | 1009.5 |
| 20260506022518 | 70 | 235 | 1.7 | 4.3 | 0.00 | 0.00 | 0.00 | 50 | 1009.5 |
| 20260506022016 | 70 | 201 | 0.9 | 4.3 | 0.00 | 0.00 | 0.00 | 50 | 1009.5 |
| 20260506021516 | 70 | 215 | 0.9 | 4.3 | 0.00 | 0.00 | 0.00 | 49 | 1009.5 |
| 20260506021014 | 70 | 212 | 1.7 | 5.2 | 0.00 | 0.00 | 0.00 | 49 | 1009.1 |
| 20260506020442 | 70 | 232 | 1.7 | 5.2 | 0.00 | 0.00 | 0.00 | 49 | 1009.1 |
| 20260506015941 | 70 | 210 | 1.7 | 5.2 | 0.00 | 0.00 | 0.00 | 49 | 1009.1 |
| 20260506015441 | 70 | 233 | 1.7 | 5.2 | 0.00 | 0.00 | 0.00 | 50 | 1009.1 |
| 20260506014939 | 70 | 209 | 1.7 | 5.2 | 0.00 | 0.00 | 0.00 | 50 | 1009.1 |